Retour au catalogue

THORAD DELTA 1 DEB

ActifSSO
NORAD 9985·DEBRIS·🇺🇸 United States

Lancé Nov 15, 1974 depuis Vandenberg Space Force Base

Loading…

Prochains Passages (prochaines 24 heures)

TLE

FraisSource: Space-Track

Époque: Sep 13, 2026, 09:20 UTC

1 09985U 74089EC  26256.38933872 -.00000011  00000-0  23324-3 0  9993
2 09985 102.0027 221.0245 0047661 220.3523 294.9555 12.49105942363493

Suivez THORAD DELTA 1 DEB en temps réel avec AllMySat

Download on the App Store